Regional Weather Roundup
Issued by NWS San Diego, CA

Home | Current Version | Previous Version | Text Only | Print | Product List | Glossary On
Versions: 1 2 3 4 5 6 7 8 9 10 11 12 13 14 15 16 17 18 19 20 21 22 23 24 25 26 27 28 29 30 31 32 33 34 35 36 37 38 39 40 41 42 43 44 45 46 47 48 49 50
000
ASUS46 KSGX 291210
RWRSGX

SAN DIEGO HOURLY WEATHER ROUNDUP
NATIONAL WEATHER SERVICE SAN DIEGO CA
400 AM PST THU JAN 29 2015

NOTE: "FAIR" INDICATES FEW OR NO CLOUDS BELOW 12,000 FEET WITH NO
SIGNIFICANT WEATHER AND/OR OBSTRUCTIONS TO VISIBILITY.

CAZ042-043-060-061-PZZ750-775-291300-

GREATER SAN DIEGO AREA

CITY           SKY/WX    TMP DP  RH WIND       PRES   REMARKS
LINDBERGH FLD  CLOUDY    62  48  60 W5        30.01F
IMPERIAL BEACH CLOUDY    60  48  64 NE6       30.00F
BROWN FIELD    CLOUDY    61  42  49 CALM      30.00F
MIRAMAR MCAS   CLOUDY    60  45  57 NE7       30.00F
MONTGOMERY FLD CLOUDY    60  47  61 N3        30.00F

$$

NORTH SAN DIEGO COUNTY

CITY           SKY/WX    TMP DP  RH WIND       PRES   REMARKS
CAMP PENDLETON CLOUDY    55  48  77 W5        30.01F
OCEANSIDE AP   CLOUDY    56  47  71 NE5       30.00F
CARLSBAD       CLOUDY    60  44  55 CALM      30.00F

$$

EAST SAN DIEGO COUNTY

CITY           SKY/WX    TMP DP  RH WIND       PRES   REMARKS
RAMONA         CLOUDY    52  45  77 CALM      30.03F
CAMPO            N/A     57  39  51 E12       30.03F

$$

ORANGE COUNTY AND THE LOS ANGELES BASIN

CITY           SKY/WX    TMP DP  RH WIND       PRES   REMARKS
JOHN WAYNE AP  CLOUDY    62  52  69 E3        30.02F
LOS ALAMITOS   FAIR      59  53  79 N2        30.02F
FULLERTON      CLOUDY    61  47  59 CALM      30.01F
LONG BEACH     CLOUDY    60  50  69 NW5       30.02F
L.A. AP        CLOUDY    65  44  46 N6        30.03F
L.A. DOWNTOWN  CLOUDY    62  45  53 CALM      30.02F

$$

THE INLAND EMPIRE

CITY           SKY/WX    TMP DP  RH WIND       PRES   REMARKS
CORONA         CLOUDY    65  40  39 SE6       30.04F
CHINO          CLOUDY    56  49  77 CALM      30.05F
ONTARIO        CLOUDY    58  43  57 CALM      30.04F
RIVERSIDE AP   CLOUDY    62  42  47 E7        30.04F
MARCH ARB      CLOUDY    55  41  59 CALM      30.06F
FRENCH VALLEY  FAIR      55  46  71 N8        30.06F

$$

SAN BERNARDINO AND RIVERSIDE COUNTY MOUNTAINS

CITY           SKY/WX    TMP DP  RH WIND       PRES   REMARKS
BIG BEAR AP    CLOUDY    32  30  93 NE3       30.22F

$$

SOUTHERN DESERT INCLUDING THE COACHELLA VALLEY

CITY           SKY/WX    TMP DP  RH WIND       PRES   REMARKS
PALM SPRINGS   CLOUDY    65  41  41 W6        30.08F
THERMAL        CLOUDY    60  47  61 N7        30.03F
BLYTHE         CLOUDY    58  49  72 W5        30.05F
IMPERIAL AP    CLOUDY    56  50  80 W3        30.04F
EL CENTRO NAS  CLOUDY    58  51  78 N3        30.04F
YUMA AZ        CLOUDY    62  49  62 NW6       30.04S

$$

UPPER DESERT

CITY           SKY/WX    TMP DP  RH WIND       PRES   REMARKS
VICTORVILLE AP CLOUDY    46  43  87 S3        30.16F
PALMDALE       CLOUDY    48  46  93 NW6       30.16F
LANCASTER      CLOUDY    47  44  90 CALM      30.17S
EDWARDS AFB    CLOUDY    48  47  99 CALM      30.15S
DAGGETT        CLOUDY    51  46  83 W7        30.15F
29 PALMS N     CLOUDY    52  45  77 W8        30.20F
NEEDLES        CLOUDY    61  46  57 NW7       30.08F

$$

REGIONAL REPORTS

CITY           SKY/WX    TMP DP  RH WIND       PRES   REMARKS
SANTA BARBARA  CLOUDY    55  50  83 N3        30.04F
SANDBERG       CLOUDY    50  36  58 E18G25    30.17F
MT. WILSON       N/A     46  19  34 MISG        N/A
LAS VEGAS NV   CLOUDY    54  44  69 SW6       30.14S
PHOENIX AZ     MOCLDY    59  51  75 E5        30.03F
TIJUANA        MOCLDY    61  43  51 CALM      30.02F

$$

OFFSHORE ISLANDS

CITY           SKY/WX    TMP DP  RH WIND       PRES   REMARKS
CATALINA ARPT  CLOUDY    62  42  47 NE6       30.06F
SAN NICOLAS IS CLOUDY   N/A N/A N/A NW10      30.03F

$$

MARINE AND OFFSHORE BUOY REPORTS

STATION/POSITION SKY/WX   TEMP    WIND        PRES    SWELL
                          AIR SEA DIR/SP/G            HT/PER/DIR
                          (F)     (DEG/KT/KT) (MB)    (FT/S/D)
TANNER BANKS               62 62  310/  6/  8 1016.6F   5/280/14
S CLEMENTE BASIN           62 62  300/  6/  6 1016.1F   3/290/14
SAN NICOLAS IS.               63                N/A     5/270/14
SO. S. ROSA ISLA           62 61  340/  6/  8 1016.5F   5/13
W. S. BARBARA CH           62 60  320/  6/  8 1017.0F   5/270/13
S. MONICA BASIN            62 62  280/  4/  6 1017.1F   3/240/13
S PEDRO CHANNEL               62                N/A     3/270/14
DANA POINT                    62                N/A     2/250/13
CMP PENDLETON NS              62                N/A     2/250/14
OCEANSIDE OFFSHR              62                N/A     2/250/14
TORREY PINES OTR              62                N/A     3/270/13
LA JOLLA 1                 62 62  190/  2/  3 1016.1S
MISSION BAY BUOY              62                N/A     3/260/13
SAN DIEGO BAY                 62              1016.3S
POINT LOMA SOUTH              62                N/A     3/260/14

$$



USA.gov is the U.S. government's official web portal to all federal, state and local government web resources and services.